Preview of NWS' New Version of Forecast
This preview is not operational and should not be used for support decisions.

Regional Weather Roundup (RWR)

Issued by National Weather Service (NWS)

                            
000
ASUS46 KSEW 201510
RWRWA 

WASHINGTON REGIONAL WEATHER ROUNDUP
NATIONAL WEATHER SERVICE SEATTLE WA
700 AM PST WED FEB 20 2019

NOTE:"FAIR" INDICATES FEW OR NO CLOUDS BELOW 12,000 FEET WITH NO 
SIGNIFICANT WEATHER AND/OR OBSTRUCTIONS TO VISIBILITY.

WAZ507-509-555>559-201600-
SEATTLE, TACOMA, EVERETT, AND VICINITY
  
CITY           SKY/WX    TMP DP  RH WIND       PRES   REMARKS
EVERETT        MOCLDY    35  33  92 N5        29.84R                  
BOEING FIELD   MOCLDY    38  33  82 CALM      29.86R                  
RENTON         CLOUDY    36  33  89 CALM      29.86R                  
SEATAC AIRPORT MOCLDY    37  34  89 E6        29.84R                  
JBLM-MCCHORD   CLOUDY   N/A N/A N/A CALM      29.85R                  
PUYALLUP       CLOUDY    34  34 100 CALM      29.84S                  
BREMERTON      CLOUDY    35  34  96 CALM      29.85R                  
JBLM-FT LEWIS  CLOUDY    36  36 100 CALM      29.85R                  
TACOMA NARROWS CLOUDY    37  35  92 CALM      29.85R                  
$$
 
WAZ001-503-506-510-514-515-201600-
NORTH INTERIOR
  
CITY           SKY/WX    TMP DP  RH WIND       PRES   REMARKS
BELLINGHAM     FOG       32  30  92 N6        29.85R VSB 1/2          
FRIDAY HARBOR  CLOUDY    37  33  85 CALM      29.86S                  
EASTSOUND      CLOUDY    36  36 100 CALM      29.84S FOG              
PORT ANGELES   CLOUDY    34  33  96 SW5       29.86R                  
EDIZ HOOK      CLOUDY    37  35  92 S5        29.87S                  
PORT TOWNSEND  CLOUDY    37  36  93 CALM      29.85S                  
NAS WHIDBEY    LGT RAIN  40  34  79 NE5       29.89R                  
ARLINGTON      MOCLDY    32  30  93 CALM      29.86R FOG              
BURLINGTON     CLOUDY    36  36 100 CALM      29.85S FOG              
$$
 
WAZ020-022-039-040-504-511-512-201600-
SOUTHWEST INTERIOR
  
CITY           SKY/WX    TMP DP  RH WIND       PRES   REMARKS
SHELTON        CLOUDY    35  33  92 CALM      29.84S                  
OLYMPIA        LGT RAIN  34  34 100 CALM      29.86S FOG              
CHEHALIS       CLOUDY    36  36 100 CALM      29.85S                  
KELSO          MIX PCPN  37  36  96 SE5       29.87S                  
VANCOUVER      LGT RAIN  37  35  92 CALM      29.87F                  
SCAPPOOSE, OR  CLOUDY    35  32  88 W5        29.87S                  
PORTLAND, OR   MOCLDY    39  39 100 CALM      29.88S                  
$$
 
WAZ021-516-517-201600-
WASHINGTON COAST
  
CITY           SKY/WX    TMP DP  RH WIND       PRES   REMARKS
FORKS          FOG       30  29  96 CALM      29.84S VSB 1/4          
HOQUIAM        LGT RAIN  34  33  96 NE5       29.85S                  
ASTORIA, OR    MOCLDY    40  36  86 NW5       29.87R                  
$$
 
WAZ019-023-024-040-567>569-201600-
CASCADE MOUNTAINS AND COLUMBIA GORGE
  
CITY           SKY/WX    TMP DP  RH WIND       PRES   REMARKS
STAMPEDE PASS  FOG       25  22  88 VRB3      29.67R VSB 1/2          
TROUTDALE, OR  LGT RAIN  40  36  86 SW8       29.88S                  
HOOD RIVER, OR PTSUNNY   36  32  87 CALM      29.80S                  
THE DALLES, OR CLOUDY    37  30  75 W6        29.80R                  
$$

WAZ026-027-041>044-520-521-201600-
EAST SLOPES
  
CITY           SKY/WX    TMP DP  RH WIND       PRES   REMARKS
OMAK           MOCLDY    20  18  92 N10       29.82R WCI   9          
WENATCHEE      CLOUDY    19  14  81 N3        29.82R                  
ELLENSBURG     CLOUDY    20  16  84 E6        29.75R                  
YAKIMA         MOCLDY    14  10  84 SW3       29.80R FOG              
SUNNYSIDE ARPT FOG       22  22  98 CALM      29.82  VSB<1/4          
YAKIMA TC      PTSUNNY   17  14  89 S3        29.75S FOG              
$$

WAZ028-034-035-201600-
COLUMBIA BASIN
  
CITY           SKY/WX    TMP DP  RH WIND       PRES   REMARKS
EPHRATA        CLOUDY    24  18  77 N12       29.78R HAZE    WCI  13  
MOSES LAKE     CLOUDY    25  19  78 N7        29.79R                  
PASCO          CLOUDY    38  21  50 NW13      29.85R                  
RICHLAND ARPT  CLOUDY    28  23  79 W8        29.85R                  
HERMISTON, OR  CLOUDY    30  24  78 E8        29.81R                  
$$

WAZ036>038-201600-
NORTHEAST WASHINGTON
  
CITY           SKY/WX    TMP DP  RH WIND       PRES   REMARKS
SPOKANE GEIGER CLOUDY    22  17  81 NE5       29.71R                  
SPOKANE FELTS  CLOUDY    24  19  81 CALM      29.74R                  
FAIRCHILD AFB  FLURRIES  21  21 100 NE7       29.70R                  
COEURDALENE,ID MOCLDY    21  18  88 N14       29.71R WCI   8          
DEER PARK      CLOUDY    19  15  84 N10       29.73R WCI   7          
$$

WAZ029>033-201600-
SOUTHEAST WASHINGTON
  
CITY           SKY/WX    TMP DP  RH WIND       PRES   REMARKS
PULLMAN        LGT SNOW  26  23  88 E7        29.68R VSB 1            
LEWISTON, ID   SNOW      27  25  92 CALM      29.72S VSB 1/2          
WALLA WALLA    LGT SNOW  24  20  84 SW8       29.78S FOG              
PENDLETON, OR  LGT SNOW  26  22  84 NE10      29.76R FOG     WCI  16  
$$